KAL645 RKSI-WSSS

Flight info

Callsign KAL645
Flight time N/A
Altitude 36000
Route SEL2A SEL B576 BOLUT/N0478F380 B576 APU B1 ANLOT W4 TNN A577 KABAM/N0478F360 N892 MUMOT/N0479F390 N892 MIGUG/K0885F390 N892 MOXON/K0887F400 N892 MELAS/N0479F400 N892 MABAL MABAL2B
Aircraft B77W/H-SDE1E2E3FGHIJ2J3J4J5M1RWXY/LB1D1

Departure

Time 2026-05-01 10:38
Airport Incheon International Airport (RKSI)

Arrival

Time N/A
Airport Singapore Changi Airport (WSSS)
Time Latitude Longitude Altitude Speed Heading
2026-05-01 09:43 37.46512 126.43365 38 ft 0 kts 296°
2026-05-01 10:19 37.46511 126.43367 38 ft 2 kts 296°
2026-05-01 10:19 37.46500 126.43396 36 ft 4 kts 296°
2026-05-01 10:20 37.46479 126.43450 34 ft 4 kts 289°
2026-05-01 10:20 37.46479 126.43474 34 ft 3 kts 220°
2026-05-01 10:20 37.46497 126.43493 37 ft 3 kts 231°
2026-05-01 10:20 37.46510 126.43514 37 ft 4 kts 235°
2026-05-01 10:21 37.46521 126.43533 36 ft 0 kts 234°
2026-05-01 10:24 37.46512 126.43517 37 ft 9 kts 235°
2026-05-01 10:25 37.46366 126.43544 38 ft 13 kts 146°
2026-05-01 10:25 37.46222 126.43664 38 ft 13 kts 164°
2026-05-01 10:26 37.46133 126.43574 38 ft 22 kts 235°
2026-05-01 10:26 37.46049 126.43421 38 ft 21 kts 235°
2026-05-01 10:26 37.45883 126.43220 38 ft 12 kts 157°
2026-05-01 10:27 37.45645 126.43432 38 ft 22 kts 145°
2026-05-01 10:27 37.45393 126.43657 38 ft 22 kts 144°
2026-05-01 10:28 37.45267 126.43770 37 ft 22 kts 144°
2026-05-01 10:28 37.45015 126.43994 37 ft 22 kts 144°
2026-05-01 10:28 37.44888 126.44108 37 ft 23 kts 144°
2026-05-01 10:29 37.44630 126.44337 37 ft 22 kts 144°
2026-05-01 10:29 37.44509 126.44422 37 ft 14 kts 189°
2026-05-01 10:30 37.44429 126.44307 37 ft 0 kts 235°
2026-05-01 10:35 37.44422 126.44295 37 ft 7 kts 235°
2026-05-01 10:35 37.44403 126.44261 37 ft 7 kts 235°
2026-05-01 10:35 37.44375 126.44209 37 ft 7 kts 237°
2026-05-01 10:35 37.44377 126.44150 37 ft 7 kts 302°
2026-05-01 10:36 37.44408 126.44115 37 ft 0 kts 324°
2026-05-01 10:37 37.44894 126.43677 38 ft 114 kts 325°
2026-05-01 10:37 37.45725 126.42926 56 ft 173 kts 319°
2026-05-01 10:38 37.46738 126.42068 740 ft 166 kts 320°
2026-05-01 10:38 37.47646 126.41198 1564 ft 167 kts 308°
2026-05-01 10:38 37.48272 126.39941 1999 ft 180 kts 301°
2026-05-01 10:38 37.49138 126.38623 2235 ft 210 kts 308°
2026-05-01 10:39 37.50113 126.37136 2575 ft 227 kts 298°
2026-05-01 10:39 37.50472 126.35170 3071 ft 240 kts 272°
2026-05-01 10:39 37.50485 126.33022 3742 ft 249 kts 273°
2026-05-01 10:39 37.50530 126.30812 4532 ft 257 kts 274°
2026-05-01 10:40 37.50582 126.28548 5405 ft 259 kts 274°
2026-05-01 10:40 37.50634 126.26273 6335 ft 261 kts 275°
2026-05-01 10:40 37.50688 126.23977 7144 ft 264 kts 275°
2026-05-01 10:40 37.50734 126.21671 7743 ft 270 kts 272°
2026-05-01 10:41 37.50283 126.19340 7961 ft 284 kts 245°
2026-05-01 10:41 37.48936 126.17496 8253 ft 292 kts 218°
2026-05-01 10:41 37.45111 126.15526 9068 ft 305 kts 204°
2026-05-01 10:42 37.43081 126.14695 9435 ft 310 kts 193°
2026-05-01 10:42 37.40910 126.14831 9807 ft 320 kts 162°
2026-05-01 10:42 37.38997 126.16229 10171 ft 321 kts 135°
2026-05-01 10:42 37.37533 126.18271 10554 ft 319 kts 128°
2026-05-01 10:43 37.36088 126.20395 10952 ft 321 kts 128°
2026-05-01 10:43 37.34622 126.22522 11367 ft 323 kts 129°
2026-05-01 10:43 37.33139 126.24657 11792 ft 325 kts 129°
2026-05-01 10:43 37.31638 126.26813 12159 ft 336 kts 129°
2026-05-01 10:44 37.30034 126.29116 12411 ft 365 kts 129°
2026-05-01 10:44 37.28288 126.31617 12640 ft 395 kts 129°
2026-05-01 10:44 37.26429 126.34269 13221 ft 411 kts 129°
2026-05-01 10:44 37.24531 126.36941 13990 ft 420 kts 132°
2026-05-01 10:45 37.22305 126.39379 14781 ft 430 kts 144°
2026-05-01 10:45 37.19710 126.41278 15714 ft 434 kts 155°
2026-05-01 10:45 37.16904 126.42693 16618 ft 437 kts 162°
2026-05-01 10:45 37.13999 126.43930 17427 ft 445 kts 162°
2026-05-01 10:46 37.11051 126.45190 18252 ft 451 kts 162°
2026-05-01 10:46 37.08067 126.46477 18980 ft 457 kts 163°
2026-05-01 10:46 37.05041 126.47792 19711 ft 463 kts 163°
2026-05-01 10:46 37.01980 126.49129 20430 ft 469 kts 163°
2026-05-01 10:47 36.98921 126.50471 21117 ft 476 kts 163°
2026-05-01 10:47 36.95773 126.51852 21767 ft 483 kts 163°
2026-05-01 10:47 36.92587 126.53250 22446 ft 489 kts 164°
2026-05-01 10:47 36.89352 126.54667 23121 ft 495 kts 164°
2026-05-01 10:48 36.86088 126.56097 23736 ft 500 kts 164°
2026-05-01 10:48 36.82783 126.57543 24219 ft 507 kts 165°
2026-05-01 10:48 36.79426 126.59010 24722 ft 514 kts 165°
2026-05-01 10:48 36.76034 126.60489 25241 ft 519 kts 165°
2026-05-01 10:49 36.72644 126.61941 25740 ft 524 kts 167°
2026-05-01 10:49 36.69146 126.63242 26251 ft 527 kts 170°
2026-05-01 10:49 36.65594 126.64416 26733 ft 531 kts 172°
2026-05-01 10:49 36.61991 126.65555 27156 ft 536 kts 172°
2026-05-01 10:50 36.58362 126.66709 27683 ft 540 kts 172°
2026-05-01 10:50 36.54715 126.67897 28180 ft 545 kts 172°
2026-05-01 10:50 36.51042 126.69119 28635 ft 549 kts 172°
2026-05-01 10:50 36.47332 126.70366 29068 ft 554 kts 172°
2026-05-01 10:51 36.43600 126.71624 29472 ft 558 kts 172°
2026-05-01 10:51 36.39838 126.72884 29840 ft 562 kts 172°
2026-05-01 10:51 36.36126 126.74128 30421 ft 559 kts 172°
2026-05-01 10:51 36.32389 126.75388 31016 ft 556 kts 172°
2026-05-01 10:52 36.28645 126.76650 31430 ft 558 kts 173°
2026-05-01 10:52 36.24897 126.77911 31843 ft 558 kts 173°
2026-05-01 10:52 36.21150 126.79155 32326 ft 556 kts 174°
2026-05-01 10:52 36.17392 126.80063 32782 ft 545 kts 181°
2026-05-01 10:53 36.13657 126.80515 33315 ft 535 kts 187°
2026-05-01 10:53 36.09958 126.80638 33789 ft 527 kts 192°
2026-05-01 10:53 36.06339 126.80371 34181 ft 518 kts 197°
2026-05-01 10:53 36.02756 126.79918 34530 ft 518 kts 197°
2026-05-01 10:54 35.99164 126.79475 34876 ft 518 kts 197°
2026-05-01 10:54 35.95571 126.79062 35181 ft 519 kts 197°
2026-05-01 10:54 35.92021 126.78677 35508 ft 520 kts 197°
2026-05-01 10:54 35.88417 126.78294 35843 ft 520 kts 197°
2026-05-01 10:55 35.84799 126.77904 35938 ft 525 kts 197°
2026-05-01 10:55 35.77534 126.77122 35946 ft 521 kts 197°
2026-05-01 10:56 35.70349 126.76357 35973 ft 517 kts 197°
2026-05-01 10:56 35.63237 126.75589 35983 ft 516 kts 197°
2026-05-01 10:57 35.56075 126.74818 35964 ft 517 kts 197°
2026-05-01 10:57 35.48909 126.74053 35979 ft 517 kts 197°
2026-05-01 10:58 35.41726 126.73292 35982 ft 519 kts 197°
2026-05-01 10:58 35.34534 126.72526 35966 ft 519 kts 196°
2026-05-01 10:59 35.27385 126.71771 35978 ft 519 kts 196°
2026-05-01 10:59 35.20196 126.71011 35973 ft 519 kts 196°
2026-05-01 11:00 35.13016 126.70255 35977 ft 517 kts 196°
2026-05-01 11:00 35.05850 126.69500 35979 ft 516 kts 196°
2026-05-01 11:01 34.98692 126.68742 35985 ft 516 kts 196°
2026-05-01 11:01 34.91583 126.67990 35978 ft 516 kts 196°
2026-05-01 11:02 34.84440 126.67237 35977 ft 516 kts 196°
2026-05-01 11:02 34.77298 126.66485 35964 ft 513 kts 195°
2026-05-01 11:03 34.70198 126.65744 35966 ft 510 kts 195°
2026-05-01 11:03 34.63138 126.65002 35976 ft 508 kts 195°
2026-05-01 11:04 34.56120 126.64266 35978 ft 505 kts 195°
2026-05-01 11:04 34.49163 126.63538 35975 ft 505 kts 195°
2026-05-01 11:05 34.42150 126.62804 35995 ft 506 kts 195°
2026-05-01 11:05 34.35127 126.62054 35986 ft 507 kts 195°
2026-05-01 11:06 34.28089 126.61289 36001 ft 508 kts 195°
2026-05-01 11:06 34.21036 126.60536 36003 ft 510 kts 195°
2026-05-01 11:07 34.10484 126.59441 36001 ft 510 kts 195°
2026-05-01 11:07 34.03419 126.58707 36009 ft 510 kts 195°
2026-05-01 11:08 33.96347 126.57971 36003 ft 510 kts 194°
2026-05-01 11:09 33.85785 126.56742 36015 ft 502 kts 200°
2026-05-01 11:09 33.79143 126.54676 35997 ft 485 kts 211°
2026-05-01 11:10 33.69713 126.50460 36024 ft 485 kts 211°
2026-05-01 11:10 33.63368 126.47687 36026 ft 485 kts 210°
2026-05-01 11:11 33.57013 126.44938 36011 ft 485 kts 210°
2026-05-01 11:11 33.50655 126.42191 36018 ft 486 kts 210°
2026-05-01 11:12 33.44333 126.39460 36029 ft 487 kts 210°
2026-05-01 11:12 33.37951 126.36717 36027 ft 488 kts 210°
2026-05-01 11:13 33.31547 126.33978 36032 ft 489 kts 210°
2026-05-01 11:13 33.25138 126.31240 36035 ft 489 kts 210°
2026-05-01 11:14 33.18732 126.28505 36027 ft 489 kts 210°
2026-05-01 11:14 33.12369 126.25794 36038 ft 489 kts 210°
2026-05-01 11:15 33.05963 126.23066 36042 ft 489 kts 209°
2026-05-01 11:15 32.99553 126.20340 36041 ft 489 kts 209°
2026-05-01 11:16 32.93154 126.17598 36042 ft 489 kts 210°
2026-05-01 11:16 32.86757 126.14848 36034 ft 489 kts 210°
2026-05-01 11:17 32.80416 126.12129 36037 ft 487 kts 209°
2026-05-01 11:17 32.74048 126.09405 36039 ft 486 kts 209°
2026-05-01 11:18 32.67705 126.06695 36047 ft 485 kts 209°
2026-05-01 11:18 32.61355 126.03986 36046 ft 483 kts 209°
2026-05-01 11:19 32.55073 126.01310 36050 ft 483 kts 209°
2026-05-01 11:19 32.48755 125.98622 36049 ft 482 kts 209°
2026-05-01 11:20 32.42440 125.95944 36049 ft 482 kts 208°
2026-05-01 11:20 32.36126 125.93273 36060 ft 482 kts 208°
2026-05-01 11:21 32.29810 125.90602 36059 ft 482 kts 208°
2026-05-01 11:21 32.23531 125.87951 36052 ft 482 kts 208°
2026-05-01 11:22 32.17206 125.85284 36061 ft 483 kts 208°
2026-05-01 11:22 32.10874 125.82618 36062 ft 483 kts 208°
2026-05-01 11:23 32.04535 125.79953 36058 ft 484 kts 208°
2026-05-01 11:23 31.98194 125.77290 36066 ft 484 kts 208°
2026-05-01 11:24 31.91898 125.74633 36069 ft 484 kts 208°
2026-05-01 11:25 31.82397 125.70629 36063 ft 483 kts 208°
2026-05-01 11:25 31.72905 125.66639 36069 ft 483 kts 208°
2026-05-01 11:26 31.63466 125.62689 36065 ft 482 kts 207°
2026-05-01 11:27 31.57152 125.60050 36076 ft 482 kts 207°
2026-05-01 11:27 31.50830 125.57412 36076 ft 482 kts 207°
2026-05-01 11:28 31.44511 125.54772 36070 ft 482 kts 207°
2026-05-01 11:28 31.38237 125.52153 36084 ft 482 kts 207°
2026-05-01 11:29 31.28756 125.48201 36065 ft 482 kts 207°
2026-05-01 11:30 31.19287 125.44264 36081 ft 481 kts 206°
2026-05-01 11:30 31.12983 125.41648 36087 ft 481 kts 206°
2026-05-01 11:31 31.06727 125.39054 36085 ft 480 kts 206°
2026-05-01 11:31 31.00433 125.36449 36089 ft 480 kts 206°
2026-05-01 11:32 30.94138 125.33847 36092 ft 480 kts 206°
2026-05-01 11:32 30.87848 125.31250 36072 ft 480 kts 206°
2026-05-01 11:33 30.81606 125.28677 36082 ft 479 kts 206°
2026-05-01 11:33 30.75322 125.26090 36093 ft 479 kts 206°
2026-05-01 11:34 30.69035 125.23505 36082 ft 479 kts 206°
2026-05-01 11:34 30.62756 125.20928 36089 ft 478 kts 206°
2026-05-01 11:35 30.56485 125.18357 36093 ft 478 kts 206°
2026-05-01 11:35 30.50214 125.15789 36094 ft 478 kts 206°
2026-05-01 11:36 30.43950 125.13222 36082 ft 477 kts 206°
2026-05-01 11:36 30.37728 125.10664 36092 ft 477 kts 206°
2026-05-01 11:37 30.31465 125.08090 36096 ft 478 kts 206°
2026-05-01 11:37 30.25199 125.05519 36096 ft 478 kts 205°
2026-05-01 11:38 30.18932 125.02953 36101 ft 478 kts 205°
2026-05-01 11:38 30.12659 125.00387 36101 ft 478 kts 205°
2026-05-01 11:39 30.06386 124.97824 36088 ft 478 kts 205°
2026-05-01 11:39 30.00165 124.95287 36099 ft 477 kts 205°
2026-05-01 11:40 29.93941 124.92667 36106 ft 475 kts 206°
2026-05-01 11:40 29.87747 124.90000 36106 ft 475 kts 206°
2026-05-01 11:41 29.81559 124.87345 36100 ft 474 kts 206°
2026-05-01 11:41 29.75414 124.84723 36107 ft 475 kts 206°
2026-05-01 11:42 29.69212 124.82085 36105 ft 475 kts 206°
2026-05-01 11:42 29.63005 124.79448 36094 ft 476 kts 206°
2026-05-01 11:43 29.56795 124.76813 36110 ft 476 kts 206°
2026-05-01 11:43 29.50624 124.74198 36109 ft 476 kts 206°
2026-05-01 11:44 29.41290 124.70249 36095 ft 477 kts 205°
2026-05-01 11:44 29.35068 124.67621 36105 ft 477 kts 205°
2026-05-01 11:45 29.28878 124.65009 36113 ft 477 kts 205°
2026-05-01 11:45 29.22645 124.62383 36097 ft 477 kts 205°
2026-05-01 11:46 29.16410 124.59760 36109 ft 477 kts 205°
2026-05-01 11:46 29.10178 124.57141 36113 ft 478 kts 205°
2026-05-01 11:47 29.03938 124.54521 36114 ft 478 kts 205°
2026-05-01 11:47 28.97759 124.51890 36113 ft 476 kts 208°
2026-05-01 11:48 28.91985 124.48359 36113 ft 467 kts 219°
2026-05-01 11:48 28.86701 124.44071 36117 ft 466 kts 220°
2026-05-01 11:49 28.81423 124.39785 36099 ft 466 kts 220°
2026-05-01 11:49 28.76162 124.35555 36115 ft 466 kts 220°
2026-05-01 11:50 28.70851 124.31308 36113 ft 466 kts 220°
2026-05-01 11:50 28.65539 124.27067 36112 ft 466 kts 220°
2026-05-01 11:51 28.60224 124.22828 36094 ft 467 kts 220°
2026-05-01 11:51 28.54943 124.18620 36105 ft 467 kts 220°
2026-05-01 11:52 28.49616 124.14381 36115 ft 467 kts 220°
2026-05-01 11:52 28.44289 124.10146 36115 ft 468 kts 220°
2026-05-01 11:53 28.38947 124.05905 36105 ft 468 kts 220°
2026-05-01 11:53 28.33608 124.01671 36113 ft 469 kts 220°
2026-05-01 11:54 28.28309 123.97438 36112 ft 469 kts 220°
2026-05-01 11:54 28.23020 123.93121 36107 ft 469 kts 221°
2026-05-01 11:55 28.17721 123.88794 36100 ft 469 kts 220°
2026-05-01 11:55 28.12414 123.84479 36114 ft 470 kts 220°
2026-05-01 11:56 28.07130 123.80192 36110 ft 470 kts 220°
2026-05-01 11:56 28.01811 123.75884 36105 ft 471 kts 220°
2026-05-01 11:57 27.97379 123.72295 36104 ft 471 kts 220°
2026-05-01 11:57 27.91158 123.67261 36104 ft 471 kts 221°
2026-05-01 11:58 27.85830 123.62925 36101 ft 471 kts 221°
2026-05-01 11:58 27.80486 123.58574 36340 ft 476 kts 221°
2026-05-01 11:59 27.77838 123.56422 36704 ft 475 kts 221°
2026-05-01 11:59 27.75162 123.54251 37083 ft 473 kts 221°
2026-05-01 11:59 27.72496 123.52089 37463 ft 471 kts 221°
2026-05-01 12:00 27.67186 123.47786 38031 ft 471 kts 221°
2026-05-01 12:00 27.64511 123.45618 38073 ft 474 kts 221°
2026-05-01 12:01 27.56504 123.39144 38100 ft 470 kts 221°
2026-05-01 12:01 27.51202 123.34863 38101 ft 468 kts 221°
2026-05-01 12:02 27.45955 123.30631 38104 ft 467 kts 221°
2026-05-01 12:02 27.40668 123.26370 38105 ft 467 kts 221°
2026-05-01 12:03 27.35375 123.22110 38102 ft 468 kts 221°
2026-05-01 12:03 27.30068 123.17844 38105 ft 470 kts 221°
2026-05-01 12:04 27.24737 123.13564 38103 ft 472 kts 221°
2026-05-01 12:04 27.19423 123.09304 38086 ft 473 kts 221°
2026-05-01 12:05 27.14063 123.05011 38098 ft 473 kts 221°
2026-05-01 12:05 27.06008 122.98573 38101 ft 474 kts 221°
2026-05-01 12:06 27.00624 122.94298 38097 ft 474 kts 221°
2026-05-01 12:06 26.95281 122.90062 38098 ft 474 kts 221°
2026-05-01 12:07 26.89904 122.85801 38091 ft 473 kts 220°
2026-05-01 12:07 26.84526 122.81543 38090 ft 473 kts 220°
2026-05-01 12:08 26.79154 122.77293 38089 ft 473 kts 220°
2026-05-01 12:08 26.73787 122.73053 38087 ft 472 kts 220°
2026-05-01 12:09 26.68458 122.68847 38094 ft 472 kts 220°
2026-05-01 12:09 26.63090 122.64613 38091 ft 472 kts 220°
2026-05-01 12:10 26.55044 122.58266 38074 ft 472 kts 220°
2026-05-01 12:11 26.46993 122.51926 38089 ft 472 kts 220°
2026-05-01 12:11 26.41656 122.47729 38086 ft 473 kts 220°
2026-05-01 12:12 26.36273 122.43502 38088 ft 473 kts 220°
2026-05-01 12:12 26.30894 122.39282 38077 ft 473 kts 220°
2026-05-01 12:13 26.25508 122.35061 38082 ft 473 kts 220°
2026-05-01 12:13 26.20123 122.30846 38078 ft 474 kts 220°
2026-05-01 12:14 26.14765 122.26656 38075 ft 474 kts 220°
2026-05-01 12:14 26.09353 122.22462 38081 ft 475 kts 220°
2026-05-01 12:15 26.03910 122.18287 38075 ft 475 kts 220°
2026-05-01 12:15 25.98471 122.14117 38069 ft 475 kts 220°
2026-05-01 12:16 25.93028 122.09940 38074 ft 475 kts 220°
2026-05-01 12:16 25.87623 122.05796 38068 ft 475 kts 220°
2026-05-01 12:17 25.82183 122.01629 38075 ft 475 kts 219°
2026-05-01 12:17 25.76740 121.97465 38080 ft 476 kts 219°
2026-05-01 12:18 25.71287 121.93301 38062 ft 476 kts 219°
2026-05-01 12:18 25.65856 121.89181 38047 ft 476 kts 219°
2026-05-01 12:19 25.60407 121.85023 38047 ft 475 kts 220°
2026-05-01 12:19 25.54986 121.80836 38047 ft 475 kts 220°
2026-05-01 12:20 25.49559 121.76646 38046 ft 476 kts 220°
2026-05-01 12:20 25.44125 121.72463 38027 ft 476 kts 219°
2026-05-01 12:21 25.38721 121.68312 38036 ft 476 kts 219°
2026-05-01 12:21 25.33282 121.64137 38036 ft 476 kts 219°
2026-05-01 12:22 25.28756 121.60667 38024 ft 476 kts 219°
2026-05-01 12:22 25.22385 121.55786 38020 ft 477 kts 219°
2026-05-01 12:23 25.16967 121.51637 38008 ft 477 kts 220°
2026-05-01 12:23 25.11634 121.47297 38024 ft 476 kts 221°
2026-05-01 12:24 25.06356 121.42884 38019 ft 476 kts 221°
2026-05-01 12:24 25.01062 121.38485 37988 ft 477 kts 221°
2026-05-01 12:25 24.93095 121.31923 37995 ft 477 kts 221°
2026-05-01 12:26 24.87816 121.27588 38003 ft 476 kts 221°
2026-05-01 12:26 24.79841 121.21045 38022 ft 477 kts 221°
2026-05-01 12:27 24.71848 121.14496 38030 ft 478 kts 221°
2026-05-01 12:28 24.64744 121.08686 38034 ft 479 kts 221°
2026-05-01 12:29 24.55850 121.01421 38030 ft 480 kts 221°
2026-05-01 12:29 24.47812 120.94867 37992 ft 480 kts 220°
2026-05-01 12:30 24.40675 120.89071 38025 ft 479 kts 220°
2026-05-01 12:31 24.34451 120.84025 38030 ft 479 kts 220°
2026-05-01 12:31 24.29091 120.79683 38026 ft 479 kts 220°
2026-05-01 12:32 24.24642 120.76079 38023 ft 479 kts 220°
2026-05-01 12:32 24.16602 120.69578 38020 ft 479 kts 220°
2026-05-01 12:33 24.10372 120.64548 38024 ft 479 kts 220°
2026-05-01 12:33 24.05017 120.60228 38015 ft 478 kts 220°
2026-05-01 12:34 24.00565 120.56640 38022 ft 478 kts 220°
2026-05-01 12:34 23.95211 120.52329 38018 ft 478 kts 220°
2026-05-01 12:35 23.89521 120.48506 38021 ft 483 kts 210°
2026-05-01 12:35 23.83222 120.45851 38023 ft 487 kts 201°
2026-05-01 12:36 23.76815 120.43591 38018 ft 487 kts 201°
2026-05-01 12:36 23.70375 120.41275 38032 ft 487 kts 202°
2026-05-01 12:37 23.63947 120.38924 38023 ft 487 kts 202°
2026-05-01 12:37 23.57512 120.36576 38018 ft 488 kts 201°
2026-05-01 12:38 23.51119 120.34251 38027 ft 488 kts 201°
2026-05-01 12:38 23.44681 120.31910 38025 ft 488 kts 201°
2026-05-01 12:39 23.38238 120.29569 38022 ft 488 kts 201°
2026-05-01 12:39 23.31799 120.27231 38023 ft 488 kts 201°
2026-05-01 12:40 23.25365 120.24898 38020 ft 487 kts 201°
2026-05-01 12:40 23.18943 120.22571 38009 ft 487 kts 201°
2026-05-01 12:41 23.12501 120.20438 38002 ft 488 kts 195°
2026-05-01 12:41 23.05770 120.19319 38000 ft 490 kts 190°
2026-05-01 12:42 22.99009 120.18352 37993 ft 490 kts 190°
2026-05-01 12:42 22.92264 120.17332 37994 ft 489 kts 191°
2026-05-01 12:43 22.85526 120.16289 37994 ft 489 kts 191°
2026-05-01 12:43 22.78832 120.15259 37996 ft 489 kts 190°
2026-05-01 12:44 22.72101 120.14227 37997 ft 488 kts 190°
2026-05-01 12:45 22.58650 120.12168 37997 ft 488 kts 190°
2026-05-01 12:45 22.51925 120.11139 37992 ft 488 kts 190°
2026-05-01 12:46 22.45250 120.10119 38001 ft 488 kts 190°
2026-05-01 12:46 22.38526 120.09092 38000 ft 488 kts 190°
2026-05-01 12:47 22.31801 120.08066 38006 ft 488 kts 190°
2026-05-01 12:47 22.25069 120.07030 38006 ft 488 kts 191°
2026-05-01 12:48 22.18391 120.05980 38004 ft 487 kts 191°
2026-05-01 12:48 22.15052 120.05455 37865 ft 484 kts 191°
2026-05-01 12:48 22.11722 120.04933 37525 ft 484 kts 191°
2026-05-01 12:49 22.08384 120.04410 37141 ft 485 kts 191°
2026-05-01 12:49 22.05039 120.03887 36752 ft 487 kts 190°
2026-05-01 12:49 22.01687 120.03365 36358 ft 488 kts 190°
2026-05-01 12:49 21.98329 120.02854 36044 ft 486 kts 190°
2026-05-01 12:50 21.91672 120.01853 36024 ft 487 kts 190°
2026-05-01 12:50 21.84950 120.00839 36019 ft 488 kts 190°
2026-05-01 12:51 21.78234 119.99825 36019 ft 488 kts 190°
2026-05-01 12:52 21.68138 119.98298 36015 ft 488 kts 191°
2026-05-01 12:52 21.58119 119.96775 36023 ft 487 kts 190°
2026-05-01 12:53 21.48068 119.95255 36014 ft 486 kts 191°
2026-05-01 12:54 21.41367 119.94240 36006 ft 486 kts 191°
2026-05-01 12:54 21.31325 119.92722 36003 ft 485 kts 191°
2026-05-01 12:55 21.21349 119.91219 36005 ft 484 kts 191°
2026-05-01 12:56 21.14675 119.90210 36008 ft 484 kts 190°
2026-05-01 12:56 21.08009 119.89205 36003 ft 483 kts 190°
2026-05-01 12:57 21.01500 119.87685 35993 ft 475 kts 206°
2026-05-01 12:57 20.96047 119.83958 35990 ft 465 kts 226°
2026-05-01 12:57 20.93780 119.81502 36009 ft 464 kts 228°
2026-05-01 12:58 20.90304 119.77655 36005 ft 470 kts 228°
2026-05-01 12:59 20.83437 119.70149 35991 ft 467 kts 227°
2026-05-01 12:59 20.76660 119.62848 35993 ft 463 kts 227°
2026-05-01 13:00 20.69770 119.55443 35999 ft 471 kts 227°
2026-05-01 13:01 20.62811 119.47978 35997 ft 473 kts 227°
2026-05-01 13:02 20.55897 119.40569 35984 ft 470 kts 227°
2026-05-01 13:07 20.05539 118.86898 35973 ft 466 kts 226°
2026-05-01 13:08 20.00948 118.82032 35969 ft 466 kts 226°
2026-05-01 13:08 19.96384 118.77197 35970 ft 466 kts 226°
2026-05-01 13:09 19.91792 118.72337 35963 ft 466 kts 226°
2026-05-01 13:09 19.87199 118.67481 35958 ft 465 kts 226°
2026-05-01 13:10 19.82611 118.62634 35967 ft 465 kts 226°
2026-05-01 13:10 19.78051 118.57820 35961 ft 466 kts 226°
2026-05-01 13:11 19.73453 118.52970 35969 ft 466 kts 226°
2026-05-01 13:11 19.68850 118.48120 35964 ft 466 kts 226°
2026-05-01 13:12 19.64244 118.43270 35960 ft 467 kts 226°
2026-05-01 13:12 19.59663 118.38451 35980 ft 467 kts 226°
2026-05-01 13:13 19.55049 118.33602 35959 ft 468 kts 226°
2026-05-01 13:13 19.50426 118.28746 35967 ft 468 kts 226°
2026-05-01 13:14 19.45794 118.23886 35965 ft 469 kts 226°
2026-05-01 13:14 19.41161 118.19028 35956 ft 469 kts 226°
2026-05-01 13:15 19.36559 118.14205 35955 ft 468 kts 226°
2026-05-01 13:15 19.31929 118.09358 35960 ft 468 kts 226°
2026-05-01 13:16 19.27309 118.04519 35948 ft 467 kts 226°
2026-05-01 13:16 19.22686 117.99678 35967 ft 468 kts 226°
2026-05-01 13:17 19.13448 117.90016 35967 ft 468 kts 226°
2026-05-01 13:18 19.06504 117.82762 35964 ft 468 kts 226°
2026-05-01 13:18 19.01878 117.77938 35966 ft 467 kts 226°
2026-05-01 13:19 18.97280 117.73157 35964 ft 466 kts 226°
2026-05-01 13:20 18.90343 117.65954 35953 ft 466 kts 226°
2026-05-01 13:20 18.85725 117.61160 35955 ft 465 kts 226°
2026-05-01 13:21 18.78851 117.54032 35950 ft 463 kts 226°
2026-05-01 13:21 18.74259 117.49275 35949 ft 462 kts 226°
2026-05-01 13:22 18.69664 117.44518 35951 ft 463 kts 226°
2026-05-01 13:22 18.65061 117.39757 35958 ft 464 kts 226°
2026-05-01 13:23 18.60448 117.34989 35956 ft 465 kts 226°
2026-05-01 13:23 18.55821 117.30211 35952 ft 466 kts 226°
2026-05-01 13:24 18.51188 117.25430 35954 ft 466 kts 226°
2026-05-01 13:25 18.44236 117.18265 35949 ft 466 kts 226°
2026-05-01 13:25 18.39599 117.13489 35949 ft 467 kts 227°
2026-05-01 13:26 18.34955 117.08711 35944 ft 467 kts 227°
2026-05-01 13:26 18.30311 117.03936 35948 ft 466 kts 227°
2026-05-01 13:27 18.25668 116.99167 35948 ft 466 kts 227°
2026-05-01 13:27 18.18745 116.92062 35950 ft 466 kts 227°
2026-05-01 13:28 18.11788 116.84930 35944 ft 466 kts 227°
2026-05-01 13:29 18.02491 116.75412 35949 ft 467 kts 227°
2026-05-01 13:31 17.88513 116.61128 35951 ft 468 kts 227°
2026-05-01 13:32 17.76856 116.49241 35948 ft 467 kts 227°
2026-05-01 13:33 17.65197 116.37387 35945 ft 467 kts 227°
2026-05-01 13:34 17.55858 116.27904 35941 ft 467 kts 227°
2026-05-01 13:35 17.48860 116.20807 35952 ft 470 kts 227°
2026-05-01 13:36 17.41715 116.13563 35949 ft 479 kts 227°
2026-05-01 13:36 17.34584 116.06353 35945 ft 476 kts 227°
2026-05-01 13:37 17.29828 116.01546 35934 ft 474 kts 227°
2026-05-01 13:37 17.25088 115.96759 35945 ft 473 kts 227°
2026-05-01 13:38 17.17982 115.89585 35946 ft 474 kts 227°
2026-05-01 13:39 17.13270 115.84834 35947 ft 475 kts 227°
2026-05-01 13:39 17.08502 115.80030 35946 ft 477 kts 227°
2026-05-01 13:40 17.03719 115.75215 35944 ft 478 kts 227°
2026-05-01 13:40 16.98928 115.70396 35946 ft 479 kts 227°
2026-05-01 13:41 16.94128 115.65571 35945 ft 479 kts 227°
2026-05-01 13:41 16.89323 115.60744 35940 ft 480 kts 227°
2026-05-01 13:42 16.84511 115.55915 35944 ft 480 kts 227°
2026-05-01 13:42 16.79694 115.51083 35945 ft 481 kts 227°
2026-05-01 13:43 16.74873 115.46251 35939 ft 481 kts 227°
2026-05-01 13:43 16.70050 115.41422 35948 ft 480 kts 227°
2026-05-01 13:44 16.65239 115.36607 35944 ft 479 kts 227°
2026-05-01 13:44 16.60431 115.31799 35939 ft 479 kts 227°
2026-05-01 13:45 16.55624 115.26995 35947 ft 479 kts 227°
2026-05-01 13:45 16.50808 115.22185 35946 ft 480 kts 227°
2026-05-01 13:46 16.45987 115.17374 35938 ft 480 kts 227°
2026-05-01 13:46 16.41162 115.12564 35946 ft 480 kts 227°
2026-05-01 13:47 16.36343 115.07763 35945 ft 479 kts 227°
2026-05-01 13:47 16.31524 115.02965 35943 ft 479 kts 227°
2026-05-01 13:48 16.26708 114.98173 35937 ft 479 kts 227°
2026-05-01 13:48 16.21883 114.93375 35945 ft 480 kts 227°
2026-05-01 13:49 16.17055 114.88577 35937 ft 480 kts 227°
2026-05-01 13:49 16.12252 114.83809 35941 ft 480 kts 227°
2026-05-01 13:50 16.07417 114.79013 35943 ft 480 kts 227°
2026-05-01 13:50 16.02582 114.74218 35942 ft 480 kts 227°
2026-05-01 13:51 15.97747 114.69428 35943 ft 480 kts 227°
2026-05-01 13:51 15.92909 114.64638 35942 ft 480 kts 227°
2026-05-01 13:52 15.88074 114.59855 35936 ft 480 kts 227°
2026-05-01 13:52 15.83243 114.55079 35940 ft 479 kts 227°
2026-05-01 13:53 15.79226 114.51110 35949 ft 479 kts 227°
2026-05-01 13:53 15.71984 114.43960 35941 ft 479 kts 227°
2026-05-01 13:54 15.67149 114.39191 35935 ft 479 kts 227°
2026-05-01 13:54 15.62314 114.34424 35942 ft 480 kts 227°
2026-05-01 13:55 15.57470 114.29652 35934 ft 481 kts 227°
2026-05-01 13:55 15.52620 114.24878 35950 ft 482 kts 227°
2026-05-01 13:56 15.47753 114.20090 35936 ft 482 kts 227°
2026-05-01 13:56 15.42882 114.15302 35939 ft 483 kts 227°
2026-05-01 13:57 15.38003 114.10507 35943 ft 483 kts 227°
2026-05-01 13:57 15.33122 114.05714 35936 ft 483 kts 227°
2026-05-01 13:58 15.28234 114.00928 35945 ft 484 kts 225°
2026-05-01 13:58 15.22905 113.96620 35947 ft 488 kts 219°
2026-05-01 13:59 15.17348 113.92560 35945 ft 489 kts 218°
2026-05-01 13:59 15.11801 113.88492 35930 ft 489 kts 219°
2026-05-01 14:00 15.06264 113.84396 35941 ft 489 kts 219°
2026-05-01 14:00 15.00735 113.80294 35934 ft 489 kts 219°
2026-05-01 14:01 14.95201 113.76192 35940 ft 490 kts 219°
2026-05-01 14:01 14.89664 113.72092 35933 ft 490 kts 219°
2026-05-01 14:02 14.84115 113.67987 35939 ft 491 kts 219°
2026-05-01 14:02 14.78602 113.63911 35937 ft 491 kts 219°
2026-05-01 14:03 14.73043 113.59803 35934 ft 491 kts 219°
2026-05-01 14:03 14.67490 113.55702 35931 ft 491 kts 218°
2026-05-01 14:04 14.61927 113.51597 35938 ft 491 kts 218°
2026-05-01 14:04 14.56366 113.47495 35935 ft 491 kts 218°
2026-05-01 14:05 14.50804 113.43395 35930 ft 491 kts 218°
2026-05-01 14:05 14.45242 113.39294 35933 ft 492 kts 218°
2026-05-01 14:06 14.39677 113.35186 35926 ft 492 kts 218°
2026-05-01 14:06 14.34115 113.31083 35934 ft 492 kts 218°
2026-05-01 14:07 14.28556 113.26984 35927 ft 492 kts 218°
2026-05-01 14:08 14.20194 113.20825 35933 ft 492 kts 218°
2026-05-01 14:08 14.14622 113.16724 35929 ft 492 kts 217°
2026-05-01 14:09 14.09045 113.12621 35927 ft 492 kts 217°
2026-05-01 14:09 14.03474 113.08524 35927 ft 492 kts 218°
2026-05-01 14:10 13.97901 113.04429 35925 ft 492 kts 217°
2026-05-01 14:10 13.92325 113.00342 35927 ft 492 kts 217°
2026-05-01 14:11 13.86786 112.96287 35927 ft 492 kts 217°
2026-05-01 14:11 13.78425 112.90167 35924 ft 492 kts 217°
2026-05-01 14:12 13.72851 112.86089 35926 ft 492 kts 217°
2026-05-01 14:12 13.67273 112.82011 35924 ft 492 kts 217°
2026-05-01 14:13 13.62596 112.78593 35925 ft 492 kts 217°
2026-05-01 14:13 13.56112 112.73857 35926 ft 492 kts 217°
2026-05-01 14:14 13.50526 112.69780 35925 ft 492 kts 217°
2026-05-01 14:14 13.44945 112.65709 35924 ft 492 kts 217°
2026-05-01 14:15 13.39363 112.61640 35926 ft 492 kts 217°
2026-05-01 14:15 13.33776 112.57569 35926 ft 492 kts 217°
2026-05-01 14:16 13.28186 112.53499 35926 ft 493 kts 217°
2026-05-01 14:16 13.22592 112.49428 35927 ft 493 kts 217°
2026-05-01 14:17 13.16997 112.45358 35922 ft 493 kts 217°
2026-05-01 14:17 13.11404 112.41293 35923 ft 493 kts 217°
2026-05-01 14:18 13.05811 112.37230 35923 ft 493 kts 217°
2026-05-01 14:18 13.01164 112.33855 35923 ft 492 kts 217°
2026-05-01 14:19 12.94629 112.29113 35923 ft 492 kts 217°
2026-05-01 14:19 12.89035 112.25055 35923 ft 492 kts 217°
2026-05-01 14:20 12.80649 112.18977 35923 ft 492 kts 217°
2026-05-01 14:21 12.75059 112.14928 35921 ft 492 kts 217°
2026-05-01 14:21 12.69468 112.10881 35920 ft 492 kts 217°
2026-05-01 14:22 12.61083 112.04815 35920 ft 492 kts 217°
2026-05-01 14:22 12.55481 112.00765 35924 ft 492 kts 217°
2026-05-01 14:23 12.49887 111.96723 35918 ft 492 kts 216°
2026-05-01 14:23 12.44294 111.92684 35922 ft 492 kts 217°
2026-05-01 14:24 12.38712 111.88653 35919 ft 492 kts 216°
2026-05-01 14:24 12.33126 111.84614 35922 ft 491 kts 217°
2026-05-01 14:25 12.27551 111.80559 35917 ft 491 kts 217°
2026-05-01 14:25 12.21983 111.76507 35913 ft 492 kts 217°
2026-05-01 14:26 12.13653 111.70454 35916 ft 492 kts 217°
2026-05-01 14:27 12.08036 111.66377 35914 ft 492 kts 217°
2026-05-01 14:27 12.02488 111.62352 35917 ft 492 kts 217°
2026-05-01 14:28 11.94103 111.56272 35918 ft 493 kts 217°
2026-05-01 14:28 11.88514 111.52221 35909 ft 493 kts 216°
2026-05-01 14:29 11.82924 111.48172 35920 ft 493 kts 216°
2026-05-01 14:30 11.71703 111.40052 35916 ft 495 kts 216°
2026-05-01 14:31 11.63275 111.33959 35920 ft 495 kts 216°
2026-05-01 14:31 11.57654 111.29897 35920 ft 495 kts 216°
2026-05-01 14:32 11.52025 111.25832 35917 ft 496 kts 217°
2026-05-01 14:32 11.46394 111.21767 35916 ft 496 kts 217°
2026-05-01 14:33 11.40757 111.17699 35917 ft 496 kts 216°
2026-05-01 14:33 11.35116 111.13629 35918 ft 497 kts 216°
2026-05-01 14:34 11.29473 111.09564 35920 ft 497 kts 216°
2026-05-01 14:34 11.23799 111.05531 35917 ft 498 kts 216°
2026-05-01 14:35 11.18109 111.01510 35918 ft 498 kts 216°
2026-05-01 14:35 11.12414 110.97479 35920 ft 499 kts 216°
2026-05-01 14:36 11.06714 110.93443 35917 ft 499 kts 216°
2026-05-01 14:36 11.01016 110.89407 35918 ft 499 kts 215°
2026-05-01 14:37 10.95312 110.85370 35915 ft 499 kts 216°
2026-05-01 14:37 10.90577 110.82019 35917 ft 499 kts 216°
2026-05-01 14:38 10.84880 110.77990 35919 ft 498 kts 216°
2026-05-01 14:38 10.79185 110.73965 35911 ft 498 kts 216°
2026-05-01 14:39 10.73497 110.69945 35915 ft 498 kts 216°
2026-05-01 14:39 10.67809 110.65929 35911 ft 498 kts 216°
2026-05-01 14:40 10.62115 110.61910 35914 ft 498 kts 216°
2026-05-01 14:40 10.56418 110.57890 35913 ft 499 kts 216°
2026-05-01 14:41 10.50715 110.53868 35914 ft 499 kts 216°
2026-05-01 14:41 10.45006 110.49844 35921 ft 500 kts 216°
2026-05-01 14:42 10.39290 110.45816 35917 ft 500 kts 216°
2026-05-01 14:42 10.33587 110.41799 35908 ft 499 kts 216°
2026-05-01 14:43 10.27891 110.37788 35909 ft 497 kts 215°
2026-05-01 14:43 10.22246 110.33816 35906 ft 497 kts 215°
2026-05-01 14:44 10.16564 110.29808 35916 ft 498 kts 216°
2026-05-01 14:44 10.08033 110.23775 35917 ft 499 kts 215°
2026-05-01 14:45 9.99477 110.17730 35913 ft 500 kts 215°
2026-05-01 14:46 9.93769 110.13700 35907 ft 500 kts 215°
2026-05-01 14:46 9.85203 110.07656 35912 ft 500 kts 215°
2026-05-01 14:47 9.79505 110.03637 35908 ft 499 kts 215°
2026-05-01 14:48 9.70956 109.97611 35907 ft 499 kts 216°
2026-05-01 14:48 9.62412 109.91592 35911 ft 498 kts 215°
2026-05-01 14:49 9.50978 109.83542 35914 ft 503 kts 215°
2026-05-01 14:50 9.39435 109.75432 35904 ft 505 kts 215°
2026-05-01 14:51 9.30792 109.69361 35904 ft 503 kts 215°
2026-05-01 14:52 9.22178 109.63314 35910 ft 503 kts 214°
2026-05-01 14:53 9.13530 109.57246 35901 ft 506 kts 214°
2026-05-01 14:53 9.07780 109.53214 35912 ft 506 kts 214°
2026-05-01 14:54 9.01949 109.49126 35910 ft 507 kts 214°
2026-05-01 14:54 8.96204 109.45100 35908 ft 505 kts 215°
2026-05-01 14:55 8.90430 109.41054 35908 ft 504 kts 215°
2026-05-01 14:55 8.84660 109.37014 35911 ft 505 kts 214°
2026-05-01 14:56 8.78866 109.32967 35910 ft 507 kts 214°
2026-05-01 14:56 8.73044 109.28923 35918 ft 508 kts 214°
2026-05-01 14:57 8.67214 109.24876 35909 ft 509 kts 214°
2026-05-01 14:57 8.58473 109.18804 35908 ft 508 kts 214°
2026-05-01 14:58 8.52655 109.14762 35907 ft 508 kts 214°
2026-05-01 14:58 8.46827 109.10716 35920 ft 507 kts 214°
2026-05-01 14:59 8.41025 109.06689 35908 ft 505 kts 214°
2026-05-01 14:59 8.35239 109.02675 35905 ft 504 kts 214°
2026-05-01 15:00 8.26557 108.96655 35910 ft 505 kts 214°
2026-05-01 15:01 8.20757 108.92635 35916 ft 507 kts 214°
2026-05-01 15:01 8.14929 108.88597 35908 ft 509 kts 214°
2026-05-01 15:02 8.09086 108.84550 35905 ft 509 kts 214°
2026-05-01 15:02 8.03240 108.80502 35909 ft 509 kts 214°
2026-05-01 15:03 7.97409 108.76466 35909 ft 508 kts 214°
2026-05-01 15:03 7.91593 108.72442 35901 ft 506 kts 214°
2026-05-01 15:04 7.85826 108.68454 35911 ft 505 kts 214°
2026-05-01 15:04 7.80030 108.64446 35908 ft 506 kts 214°
2026-05-01 15:05 7.74215 108.60427 35908 ft 507 kts 214°
2026-05-01 15:05 7.68388 108.56401 35913 ft 508 kts 214°
2026-05-01 15:06 7.62558 108.52374 35907 ft 508 kts 214°
2026-05-01 15:06 7.56728 108.48349 35903 ft 508 kts 214°
2026-05-01 15:07 7.50908 108.44331 35909 ft 507 kts 214°
2026-05-01 15:07 7.45088 108.40315 35907 ft 507 kts 214°
2026-05-01 15:08 7.39266 108.36299 35908 ft 507 kts 214°
2026-05-01 15:08 7.33442 108.32283 35914 ft 508 kts 214°
2026-05-01 15:09 7.27606 108.28260 35911 ft 508 kts 214°
2026-05-01 15:09 7.21772 108.24239 35907 ft 508 kts 214°
2026-05-01 15:10 7.15945 108.20224 35912 ft 507 kts 214°
2026-05-01 15:10 7.07214 108.14207 35911 ft 507 kts 214°
2026-05-01 15:11 6.98515 108.08147 35910 ft 507 kts 214°
2026-05-01 15:12 6.92715 108.04097 35911 ft 507 kts 214°
2026-05-01 15:12 6.84047 107.98055 35912 ft 507 kts 214°
2026-05-01 15:14 6.69566 107.87974 35906 ft 506 kts 214°
2026-05-01 15:14 6.60890 107.81937 35909 ft 506 kts 214°
2026-05-01 15:15 6.49328 107.73897 35919 ft 505 kts 214°
2026-05-01 15:16 6.37764 107.65858 35908 ft 505 kts 214°
2026-05-01 15:18 6.23345 107.55842 35912 ft 504 kts 214°
2026-05-01 15:19 6.11803 107.47831 35913 ft 504 kts 215°
2026-05-01 15:19 6.03175 107.41844 35911 ft 502 kts 214°
2026-05-01 15:20 5.94563 107.35870 35913 ft 501 kts 214°
2026-05-01 15:21 5.88816 107.31885 35910 ft 502 kts 214°
2026-05-01 15:21 5.83061 107.27896 35914 ft 503 kts 214°
2026-05-01 15:22 5.74482 107.21951 35912 ft 501 kts 215°
2026-05-01 15:22 5.68752 107.17981 35909 ft 499 kts 215°
2026-05-01 15:23 5.63042 107.14027 35914 ft 498 kts 215°
2026-05-01 15:23 5.57350 107.10085 35914 ft 497 kts 215°
2026-05-01 15:24 5.51668 107.06151 35917 ft 497 kts 215°
2026-05-01 15:24 5.45973 107.02210 35917 ft 498 kts 214°
2026-05-01 15:25 5.41228 106.98927 35921 ft 499 kts 215°
2026-05-01 15:25 5.35505 106.94967 35921 ft 500 kts 215°
2026-05-01 15:26 5.29766 106.90999 35918 ft 501 kts 214°
2026-05-01 15:26 5.24028 106.87031 35916 ft 501 kts 215°
2026-05-01 15:27 5.18297 106.83068 35917 ft 500 kts 215°
2026-05-01 15:28 5.09715 106.77137 35918 ft 499 kts 214°
2026-05-01 15:28 5.03994 106.73184 35918 ft 499 kts 214°
2026-05-01 15:29 4.95402 106.67249 35922 ft 500 kts 214°
2026-05-01 15:30 4.83922 106.59322 35914 ft 501 kts 214°
2026-05-01 15:31 4.66722 106.47451 35919 ft 500 kts 214°
2026-05-01 15:32 4.55277 106.39557 35921 ft 499 kts 214°
2026-05-01 15:34 4.38166 106.27757 35919 ft 499 kts 213°